Flag for Tunisia Weather past 2 weeks in Tunis, Tunisia

54 °F

Passing clouds.

Feels Like: 52 °F
Forecast: 56 / 65 °F
Wind: 6 mph from Southwest

Location: Tunis-Carthage

Current Time: Nov 28, 2015 at 1:32:14 AM

Latest Report: Nov 28, 2015 at 1:00 AM

Visibility: 5 mi

Pressure: 29.98 "Hg

Humidity: 82%

Dew point: 48 °F

Location of TunisLocation

Historic Weather in Tunis — Graph


Tunis temperature yesterday

Maximum temperature yesterday: 59 °F (at 2:30 PM)
Minimum temperature yesterday: 48 °F (at 2:00 AM)
Average temperature yesterday: 53 °F

Past Weeks' High & Low Weather Summary

High79 °F (Nov 21, 1:00 PM)100% (Nov 24, 10:30 AM)30.36 "Hg (Nov 24, 10:30 AM)
Low48 °F (Nov 27, 2:00 AM)26% (Nov 21, 2:30 PM)29.53 "Hg (Nov 26, 1:00 PM)
Average62 °F71%30.05 "Hg
* Reported Midnight between Nov 12 and Nov 13 — Midnight between Nov 27 and Nov 28, Tunis, Weather by CustomWeather, © 2015

Note: Actual official high and low records may vary slightly from our data, if they occured in-between our weather recording intervals... More about our weather records


Tunis weather history for previous 24 hours

Time TempWeatherWind HumidityBarometerVisibility
12:00 AM
Sat, Nov 28
55 °FPassing clouds.8 mph72%29.95 "Hg5 mi
11:30 PM
Fri, Nov 27
54 °FPassing clouds.13 mph82%29.95 "Hg5 mi
11:00 PM54 °FLight rain. Passing clouds.10 mph82%29.92 "Hg5 mi
10:30 PM54 °FLight rain. Passing clouds.9 mph82%29.92 "Hg5 mi
10:00 PM54 °FLight rain. Passing clouds.14 mph82%29.92 "Hg5 mi
9:30 PM54 °FLight rain. Passing clouds.12 mph82%29.89 "Hg5 mi
9:00 PM54 °FLight rain. Passing clouds.14 mph82%29.89 "Hg5 mi
8:30 PM54 °FLight rain. Passing clouds.9 mph82%29.89 "Hg5 mi
8:00 PM54 °FLight rain. Passing clouds.13 mph82%29.89 "Hg5 mi
7:30 PM54 °FLight rain. Passing clouds.12 mph82%29.86 "Hg5 mi
7:00 PM54 °FPassing clouds.8 mph82%29.86 "HgN/A
6:30 PM54 °FPassing clouds.8 mph77%29.86 "HgN/A
6:00 PM55 °FPassing clouds.10 mph67%29.83 "HgN/A
5:30 PM55 °FPassing clouds.10 mph67%29.83 "HgN/A
5:00 PM55 °FScattered clouds.10 mph72%29.80 "HgN/A
4:30 PM55 °FScattered clouds.13 mph72%29.80 "HgN/A
4:00 PM55 °FScattered clouds.14 mph72%29.80 "HgN/A
3:30 PM57 °FLight rain. Scattered clouds.15 mph63%29.80 "Hg5 mi
3:00 PM57 °FScattered clouds.14 mph63%29.77 "HgN/A
2:30 PM59 °FScattered clouds.13 mph63%29.77 "HgN/A
2:00 PM55 °FScattered clouds.18 mph72%29.77 "HgN/A
1:30 PM57 °FScattered clouds.20 mph63%29.77 "HgN/A
1:00 PM57 °FScattered clouds.17 mph67%29.77 "HgN/A
12:30 PM57 °FScattered clouds.17 mph67%29.77 "HgN/A
12:00 PM55 °FScattered clouds.18 mph67%29.77 "HgN/A
11:30 AM55 °FScattered clouds.20 mph67%29.77 "HgN/A
11:00 AM55 °FScattered clouds.16 mph67%29.77 "HgN/A
10:30 AM54 °FScattered clouds.16 mph72%29.77 "HgN/A
10:00 AM52 °FScattered clouds.17 mph77%29.77 "HgN/A
9:30 AM52 °FScattered clouds.16 mph77%29.74 "HgN/A
9:00 AM50 °FScattered clouds.15 mph82%29.74 "HgN/A
7:30 AM48 °FScattered clouds.12 mph87%29.71 "HgN/A
7:00 AM48 °FLight rain. Passing clouds.14 mph82%29.71 "Hg5 mi
6:30 AM50 °FLight rain. Passing clouds.17 mph71%29.68 "Hg5 mi
6:00 AM50 °FPassing clouds.17 mph71%29.68 "Hg5 mi
5:00 AM50 °FPassing clouds.17 mph71%29.68 "Hg5 mi
4:30 AM50 °FPassing clouds.17 mph71%29.68 "Hg5 mi
4:00 AM50 °FPassing clouds.17 mph71%29.68 "Hg5 mi
3:30 AM50 °FPassing clouds.17 mph71%29.68 "Hg5 mi
3:00 AM50 °FPassing clouds.13 mph71%29.68 "Hg5 mi
2:30 AM50 °FPassing clouds.12 mph71%29.68 "Hg5 mi
2:00 AM48 °FPassing clouds.10 mph76%29.68 "Hg5 mi
1:30 AM50 °FPassing clouds.12 mph71%29.68 "Hg5 mi
1:00 AM50 °FPassing clouds.12 mph71%29.65 "Hg5 mi
Weather by CustomWeather, © 2015

See weather overviewHow to use our weather pages